This demonstration page uses our WeatherBlox Daily Observations layout. Learn more.

Left ArrowRight Arrow

39.08367, -84.50855

Hourly Observations for January 5, 2020

Temp ( °F °C ) Dew Point ( °F °C ) Humidity (%) Winds ( mph kmh ) Pressure ( in mb ) Visibility ( mi km ) Precip ( " mm )
12:22 am 00:22 Cloudy 35 1.7 26 -3.3 70 70 W 10 17 30.19 1023 10 16.0934 0 0
12:53 am 00:53 Cloudy 35 1.7 26 -3.3 70 70 W 8 13 30.18 1022 10 16.0934 0 0
1:53 am 01:53 Cloudy 35 1.7 27 -2.8 72 72 WNW 10 17 30.19 1023 10 16.0934 0 0
2:53 am 02:53 Cloudy 35 1.7 26 -3.3 70 70 W 8 13 30.21 1023 10 16.0934 0 0
3:53 am 03:53 Cloudy 35 1.7 26 -3.3 70 70 W 10 17 30.22 1023 10 16.0934 0 0
4:53 am 04:53 Cloudy 34 1.1 25 -3.9 70 70 WNW 12 19 30.22 1023 10 16.0934 0 0
5:39 am 05:39 Cloudy 33 0.6 24 -4.4 70 70 W 13 20 30.26 1025 10 16.0934 0 0
5:53 am 05:53 Cloudy 33 0.6 24 -4.4 70 70 W 12 19 30.24 1024 10 16.0934 0 0
6:21 am 06:21 Partly Cloudy 32 0 23 -5 69 69 W 10 17 30.27 1025 10 16.0934 0 0
6:53 am 06:53 Clear 32 0 24 -4.4 73 73 W 8 13 30.27 1025 10 16.0934 0 0
7:53 am 07:53 Mostly Cloudy 31 -0.6 24 -4.4 76 76 WSW 6 9 30.27 1025 10 16.0934 0 0
8:30 am 08:30 Partly Cloudy 31 -0.6 25 -3.9 79 79 SW 8 13 30.29 1026 10 16.0934 0 0
8:53 am 08:53 Mostly Cloudy 32 0 25 -3.9 75 75 SW 7 11 30.29 1026 10 16.0934 0 0
9:43 am 09:43 Partly Cloudy 33 0.6 27 -2.8 78 78 SW 9 15 30.33 1027 10 16.0934 0 0
9:53 am 09:53 Sunny 34 1.1 27 -2.8 76 76 SW 7 11 30.31 1027 10 16.0934 0 0
10:53 am 10:53 Mostly Sunny 36 2.2 29 -1.7 76 76 SSW 10 17 30.26 1025 10 16.0934 0 0
11:53 am 11:53 Mostly Sunny 39 3.9 30 -1.1 70 70 SW 8 13 30.22 1023 10 16.0934 0 0
12:53 pm 12:53 Sunny 42 5.6 30 -1.1 62 62 S 15 24 30.14 1021 10 16.0934 0 0
1:53 pm 13:53 Sunny 45 7.2 31 -0.6 58 58 SSW 15 24 30.09 1019 10 16.0934 0 0
2:53 pm 14:53 Sunny 47 8.3 29 -1.7 50 50 S 18 30 30.04 1017 10 16.0934 0 0
3:53 pm 15:53 Sunny 47 8.3 28 -2.2 48 48 S 18 30 30.02 1017 10 16.0934 0 0
4:53 pm 16:53 Sunny 46 7.8 28 -2.2 50 50 SSW 14 22 30.01 1016 10 16.0934 0 0
5:53 pm 17:53 Clear 44 6.7 29 -1.7 55 55 SW 10 17 30.01 1016 10 16.0934 0 0
6:53 pm 18:53 Clear 42 5.6 30 -1.1 62 62 SSW 12 19 30.02 1017 10 16.0934 0 0
7:53 pm 19:53 Clear 40 4.4 30 -1.1 68 68 SW 8 13 30.03 1017 10 16.0934 0 0
8:53 pm 20:53 Partly Cloudy 41 5 30 -1.1 65 65 SW 8 13 30.05 1018 10 16.0934 0 0
9:53 pm 21:53 Cloudy 45 7.2 31 -0.6 58 58 SW 8 13 30.05 1018 10 16.0934 0 0
10:53 pm 22:53 Clear 41 5 31 -0.6 67 67 SW 9 15 30.05 1018 10 16.0934 0 0
11:53 pm 23:53 Cloudy 43 6.1 32 0 65 65 W 8 13 30.06 1018 10 16.0934 0 0

Powered by AerisWeather